CZ-6A DEB, 56267

Orbit data source: Space-Track

CZ-6A DEB, 56267 is space debris in SSO originally from a launch on Fri, 11 Nov 2022 UTC launched from the Taiyaun Space Center, China (TSC). Debris objects in space refer to the collection of defunct objects orbiting the Earth. Examples of debris include non-operational satellites, rocket bodies, and fragments generated from explosions, collisions, or faulty payload assembly.

Loading next visibility...
Identifier
56267, 2022-151ACK
Orbit
SSO
Country
Flag of CNCN / PRC
Related business
Manufacturer
SAST
Mission
Spacecraft
Bus & Motor
Unknown
Mass
Unknown
Launch date (UTC)
2022-11-11 (4 years ago)
Launch vehicle
Unknown
Launch site
Taiyaun Space Center, China (TSC)
Object type
Payload
Rocket body
Debris
Shape & HBR
Unknown shape, 0.1 m
Radar Cross Section
Small (<0.1 m²)

Expand to show TLE details & history
Last TLE update: 1 day ago

TLE from 1 day ago
0 CZ-6A DEB
1 56267U 22151ACK 26206.20258253  .00047480  00000-0  35776-2 0  9993
2 56267  98.6381 296.4868 0041602  98.6214 261.9725 15.01606041184851
Epoch: 2026-07-25T04:51Z
TLE epoch observation values (Epoch: 2026-07-25T04:51:43.130Z)
Latitude
0.00006°
Longitude
-79.36116°
Altitude
569.122 km
Speed
7.574 km/s
True Right ascension
19h 45m 56s
True Declination
0° 00' 00"
Sunlit
Object was in full shadow at epoch
Visualization orbit readout
Latitude
Unknown
Longitude
Unknown
Altitude
Unknown
Speed
Unknown
Apparent Right ascension
Unknown
Apparent Declination
Unknown
Sunlit
N/A
Visualization observer readout
Local Sidereal Time
21:12:03
Azimuth
Unknown
Elevation
Unknown
Doppler factor
Unknown
Orbital elements
Apogee altitude
587.85 km
Perigee altitude
530.13 km
Semi-major axis
6,937.127 km
Eccentricity
0.00416
Inclination
98.6381°
RAAN
296.4868°
Arg. of periapsis
98.6214°
True anomaly
261.5008°
Mean anomaly
261.9725°
Eccentric anomaly
261.73661°
Mean motion
3.75642 °/min
Orbital period
95.84 mins
BSTAR
0.0035776
Loading maneuver chart data...
Computing Atmospheric mass density...

Documentation

Showing up to 5 results
|